Temp
59 59 58 58 58 58 58 57 58 59 60 62 63 62 59 60 61 60 59 62 65 68 70 71 73 73 74 73 73 72 72 72 72 71 71 71 71 71 71 71 71 70 71
61 62 61 60 60 60 61 60 60 57 57 58 59 60 59 59 58 58 58 60 63 65 67 70 71 72 72 73 73 72 71 71 71 71 71 71 70 69 70 70 70 70 70
56 56 55 55 56 55 57 61 61 61 60 60 58 58 57 57 57 58 59 60 60 62 66 69 70 70 71 71 71 71 69 69 69 69 69 69 70 70 70 70 70 70 70
55 53 53 52 52 53 54 53 53 56 55 53 52 53 54 55 56 57 56 58 56 59 61 66 67 68 70 71 71 69 68 68 65 67 67 67 67 69 69 69 69 69 69
54 52 51 51 51 50 50 50 50 50 50 50 52 52 51 51 52 56 54 55 55 57 57 62 63 64 67 70 71 71 70 69 69 69 68 69 68 68 69 69 69 69 69
52 51 50 50 50 49 48 48 48 46 46 46 52 51 48 50 50 51 54 55 52 54 55 56 56 59 64 67 68 69 69 69 69 69 69 69 69 69 69 69 69 69 69
51 49 48 49 48 48 47 47 47 47 45 45 46 47 47 48 48 49 49 49 51 52 53 54 55 54 56 62 64 66 67 68 68 68 68 68 68 68 69 68 68 68 68
50 50 48 47 47 47 47 46 46 46 45 44 44 44 43 46 47 48 47 50 48 51 53 52 53 53 53 53 58 63 66 67 68 68 68 68 67 67 67 67 67 67 67
49 48 47 47 46 46 45 45 45 45 44 44 44 45 41 41 43 46 45 46 47 47 47 50 51 52 52 52 54 56 62 65 67 68 67 67 66 66 66 66 66 65 65
47 47 47 46 46 45 45 45 47 44 44 43 44 47 44 44 42 42 46 45 46 48 46 47 48 50 51 51 54 57 59 63 66 66 66 66 66 66 66 65 65 64 64
46 46 46 45 45 45 44 45 44 44 44 43 43 43 43 42 43 43 41 43 45 46 46 46 47 49 50 50 50 54 58 62 64 65 65 64 64 65 65 65 64 63 63
44 45 46 44 44 44 44 44 44 43 44 43 43 44 44 43 42 42 40 40 41 43 45 48 47 48 49 51 53 54 56 58 61 63 64 63 61 62 63 63 63 62 62
43 43 44 44 44 44 44 44 43 43 43 43 44 44 45 44 44 43 42 39 39 40 45 49 50 51 52 49 51 52 54 56 58 60 62 62 59 59 60 61 61 60 60
44 44 44 44 44 44 44 44 43 43 43 43 44 45 45 45 45 44 42 40 38 39 41 45 49 49 50 50 51 51 50 54 57 58 59 59 58 57 59 59 59 58 58
46 44 44 43 43 43 44 43 43 43 44 44 45 45 45 45 45 44 44 43 41 37 37 45 46 48 48 48 48 47 47 52 55 56 56 56 55 55 56 56 55 55 56
45 44 43 43 43 43 43 43 42 43 43 44 46 45 46 45 45 44 44 44 43 41 38 42 45 45 47 48 48 45 45 47 52 54 54 54 54 54 54 53 54 54 54
44 44 43 43 42 42 43 42 43 43 43 45 46 45 45 46 45 45 45 44 43 43 40 41 43 45 46 44 44 44 45 44 46 52 53 53 53 52 52 51 51 52 52
46 43 43 43 42 42 42 43 42 45 44 44 44 44 45 47 44 44 44 43 43 44 43 41 43 43 43 43 43 42 43 44 44 49 51 51 51 50 51 50 50 50 50
46 43 43 43 43 43 43 42 43 44 45 45 45 44 44 44 42 42 42 42 42 44 42 42 42 44 42 42 40 40 40 41 43 45 47 49 50 49 49 49 49 48 48
42 42 43 44 44 44 45 45 44 44 44 44 44 44 44 44 43 43 43 41 41 40 40 41 41 41 40 40 41 38 37 38 37 41 43 45 45 47 48 48 47 46 46
43 45 44 44 44 44 45 43 44 43 43 43 43 43 43 44 45 45 43 40 39 38 38 39 39 38 37 37 37 38 36 36 34 35 37 37 39 39 40 44 45 45 45
43 44 43 43 43 44 45 45 44 42 42 42 42 42 42 43 44 45 44 43 40 37 38 38 38 37 36 37 37 37 35 34 32 32 35 34 33 32 33 40 45 45 44
43 41 43 43 42 43 44 44 44 42 41 41 41 41 41 43 43 42 42 40 40 42 42 38 36 36 35 36 36 34 33 33 29 25 28 25 27 29 31 34 44 43 43
42 42 42 42 42 42 44 44 44 41 40 40 41 41 41 41 40 39 37 34 33 33 33 36 35 33 31 31 31 31 29 23 25 26 28 24 24 25 28 29 41 42 42
42 42 42 41 41 41 44 44 43 39 38 39 40 41 41 41 42 41 36 33 31 32 40 40 40 40 40 39 34 31 27 27 26 27 27 27 25 27 27 27 30 39 40
42 42 41 41 42 40 43 43 42 38 36 36 38 40 42 42 43 41 36 33 30 29 29 29 28 30 31 33 35 30 29 25 24 22 26 24 26 25 22 26 27 27 28
MSLP
1020.10 1020.13 1020.24 1020.29 1020.36 1020.31 1020.34 1020.30 1020.24 1020.15 1019.97 1019.72 1019.68 1019.60 1019.70 1019.79 1019.67 1019.88 1019.96 1020.15 1019.51 1019.62 1019.95 1019.44 1019.00 1018.89 1018.79 1018.84 1018.97 1019.06 1019.10 1019.08 1019.22 1019.40 1019.42 1019.51 1019.72 1019.83 1019.91 1019.99 1020.06 1020.15 1020.19
1020.08 1020.07 1020.19 1020.28 1020.36 1020.39 1020.34 1020.29 1020.31 1020.32 1020.19 1020.04 1019.89 1019.85 1019.89 1020.03 1019.96 1019.87 1019.98 1019.86 1019.75 1019.62 1019.94 1019.67 1019.28 1019.11 1018.96 1018.86 1018.83 1019.00 1019.06 1019.07 1019.20 1019.35 1019.35 1019.46 1019.66 1019.81 1019.83 1019.88 1019.96 1020.07 1020.11
1020.24 1020.31 1020.40 1020.47 1020.48 1020.52 1020.39 1020.20 1020.17 1020.15 1020.17 1020.14 1020.22 1020.20 1020.21 1020.22 1020.14 1020.03 1019.80 1019.52 1020.06 1019.95 1019.72 1019.57 1019.39 1019.32 1019.20 1019.11 1018.97 1019.03 1019.23 1019.15 1019.32 1019.50 1019.54 1019.55 1019.67 1019.90 1019.89 1019.93 1020.00 1020.04 1020.08
1020.28 1020.40 1020.52 1020.60 1020.56 1020.64 1020.57 1020.55 1020.63 1020.57 1020.65 1020.70 1020.63 1020.42 1020.30 1020.28 1020.16 1020.05 1020.07 1020.24 1020.09 1019.84 1020.10 1019.96 1019.75 1019.27 1019.24 1019.24 1019.17 1019.27 1019.47 1019.30 1019.61 1019.69 1019.56 1019.75 1019.79 1019.81 1020.09 1020.04 1020.12 1020.16 1020.12
1020.20 1020.37 1020.54 1020.63 1020.75 1020.90 1020.96 1021.09 1021.11 1021.09 1021.04 1021.12 1021.13 1020.98 1020.72 1020.57 1020.37 1020.16 1020.32 1020.35 1020.30 1020.09 1019.94 1020.02 1020.12 1019.82 1019.31 1019.45 1019.36 1019.39 1019.43 1019.48 1019.52 1019.64 1019.59 1019.93 1020.01 1019.78 1019.98 1020.08 1020.06 1020.16 1020.15
1020.29 1020.40 1020.52 1020.66 1020.76 1020.84 1021.07 1021.12 1021.22 1021.32 1021.32 1021.44 1021.37 1021.33 1021.18 1020.94 1020.61 1020.52 1020.57 1020.47 1020.57 1020.60 1020.24 1020.16 1020.39 1020.50 1019.87 1019.92 1019.90 1019.63 1019.63 1019.62 1019.73 1019.88 1020.00 1019.96 1019.82 1019.90 1019.87 1019.93 1020.02 1020.00 1020.03
1020.48 1020.64 1020.85 1020.97 1021.02 1021.21 1021.24 1021.35 1021.46 1021.57 1021.72 1021.74 1022.00 1021.84 1021.62 1021.32 1021.13 1020.93 1020.97 1020.88 1020.96 1020.88 1020.92 1020.49 1020.48 1020.70 1020.66 1020.75 1020.55 1020.18 1019.92 1019.84 1019.89 1019.96 1019.97 1019.94 1020.06 1019.96 1019.92 1019.86 1019.90 1020.08 1020.20
1020.68 1020.75 1020.84 1020.96 1021.03 1021.25 1021.41 1021.50 1021.62 1021.86 1021.93 1021.95 1022.23 1022.38 1022.28 1022.07 1021.64 1021.49 1021.38 1021.35 1021.28 1021.26 1021.33 1021.14 1021.07 1021.05 1021.26 1021.16 1021.04 1020.76 1020.27 1020.10 1020.06 1019.91 1020.01 1020.05 1020.12 1020.11 1020.12 1019.99 1020.09 1020.23 1020.35
1020.48 1020.48 1020.67 1020.81 1020.92 1021.21 1021.37 1021.48 1021.53 1021.67 1021.84 1021.92 1022.12 1022.38 1022.65 1022.47 1022.33 1022.04 1021.83 1021.69 1021.64 1021.77 1021.89 1021.77 1021.37 1021.22 1021.36 1021.28 1021.49 1021.12 1020.74 1020.31 1020.20 1020.00 1020.15 1020.23 1020.35 1020.53 1020.35 1020.27 1020.42 1020.56 1020.74
1020.34 1020.43 1020.58 1020.73 1020.78 1020.95 1021.08 1021.25 1021.36 1021.60 1021.73 1021.94 1021.99 1021.91 1022.25 1022.36 1022.35 1022.43 1022.15 1021.96 1021.93 1021.96 1022.05 1022.06 1021.68 1021.60 1021.64 1021.67 1021.70 1021.57 1021.11 1020.65 1020.68 1020.47 1020.36 1020.53 1020.74 1020.85 1020.76 1020.82 1020.96 1021.09 1021.08
1020.52 1020.55 1020.54 1020.64 1020.81 1021.01 1021.11 1021.23 1021.35 1021.46 1021.59 1021.83 1022.03 1022.08 1022.23 1022.25 1022.25 1022.29 1022.29 1022.23 1022.04 1022.15 1022.20 1022.25 1022.13 1021.85 1021.97 1022.03 1021.97 1021.80 1021.58 1021.14 1021.24 1020.77 1020.74 1021.05 1021.38 1021.38 1021.31 1021.29 1021.53 1021.60 1021.46
1020.75 1020.67 1020.72 1020.86 1020.84 1020.91 1021.04 1021.14 1021.21 1021.32 1021.37 1021.49 1021.64 1021.80 1022.12 1022.18 1022.22 1022.26 1022.41 1022.58 1022.32 1022.56 1022.49 1022.39 1022.17 1022.04 1022.06 1022.11 1022.18 1022.13 1022.08 1021.80 1021.56 1021.25 1021.27 1021.42 1021.93 1022.09 1021.74 1021.63 1021.81 1021.93 1021.83
1020.72 1020.72 1020.85 1020.96 1020.97 1020.88 1020.93 1021.02 1021.17 1021.21 1021.23 1021.33 1021.48 1021.64 1021.78 1021.97 1022.08 1022.02 1022.12 1022.44 1022.51 1022.77 1022.77 1022.56 1022.34 1022.14 1022.20 1022.36 1022.62 1022.52 1022.43 1022.17 1021.87 1021.82 1021.61 1021.85 1022.36 1022.49 1022.29 1021.96 1021.93 1022.19 1022.19
1020.16 1020.30 1020.48 1020.62 1020.78 1020.83 1020.86 1020.95 1021.08 1020.99 1021.03 1021.24 1021.36 1021.45 1021.68 1021.87 1022.00 1021.91 1021.94 1022.05 1022.52 1022.87 1022.92 1022.70 1022.63 1022.54 1022.41 1022.61 1022.79 1022.76 1022.77 1022.60 1022.18 1021.94 1021.97 1022.36 1022.49 1022.62 1022.22 1022.19 1022.45 1022.65 1022.75
1019.59 1019.88 1020.15 1020.34 1020.40 1020.52 1020.73 1020.80 1020.91 1020.85 1020.82 1021.06 1021.20 1021.19 1021.54 1022.05 1021.95 1021.86 1021.77 1021.77 1021.79 1022.77 1023.00 1022.83 1022.79 1022.85 1022.70 1022.96 1023.11 1023.15 1023.10 1022.92 1022.46 1022.22 1022.34 1022.56 1022.70 1022.75 1022.87 1022.84 1022.96 1023.12 1023.20
1019.33 1019.61 1019.90 1020.12 1020.31 1020.34 1020.49 1020.74 1020.79 1020.73 1020.97 1021.14 1021.16 1021.16 1021.52 1021.93 1022.26 1021.84 1021.77 1021.68 1021.84 1022.08 1022.65 1022.67 1022.89 1022.96 1022.95 1023.27 1023.45 1023.49 1023.39 1023.26 1023.03 1022.61 1022.70 1022.86 1022.95 1023.18 1023.30 1023.54 1023.62 1023.44 1023.63
1018.97 1019.28 1019.61 1019.92 1020.15 1020.30 1020.40 1020.57 1020.63 1020.55 1020.79 1021.00 1020.93 1021.27 1021.52 1021.81 1022.19 1021.82 1021.71 1021.79 1021.90 1022.03 1022.41 1022.74 1022.76 1023.02 1023.14 1023.52 1023.68 1023.64 1023.67 1023.66 1023.48 1023.11 1022.95 1022.98 1023.24 1023.53 1023.74 1023.97 1023.79 1023.96 1024.05
1018.70 1019.00 1019.33 1019.67 1019.92 1020.15 1020.32 1020.35 1020.50 1020.65 1020.73 1020.96 1021.11 1021.03 1021.41 1021.57 1021.72 1021.79 1021.77 1021.99 1021.89 1022.01 1022.22 1022.50 1022.76 1023.03 1023.29 1023.55 1023.73 1023.89 1024.00 1023.99 1024.04 1023.68 1023.32 1023.29 1023.56 1023.91 1024.04 1024.23 1024.38 1024.43 1024.32
1018.47 1018.88 1019.35 1019.60 1019.72 1019.92 1020.01 1020.22 1020.35 1020.47 1020.55 1020.69 1020.98 1021.07 1021.31 1021.34 1021.43 1021.75 1021.93 1022.05 1022.06 1022.08 1022.31 1022.51 1022.75 1022.91 1023.40 1023.71 1024.07 1024.24 1024.41 1024.49 1024.43 1024.30 1024.08 1023.88 1024.04 1024.34 1024.52 1024.68 1024.75 1024.75 1024.81
1018.48 1018.80 1019.00 1019.25 1019.35 1019.63 1019.92 1019.98 1020.12 1020.13 1020.29 1020.59 1020.81 1021.01 1021.16 1020.96 1021.11 1021.40 1021.71 1021.88 1022.06 1022.30 1022.55 1022.74 1022.86 1023.07 1023.36 1023.82 1024.02 1024.36 1024.77 1024.95 1024.96 1024.88 1024.77 1024.73 1024.87 1024.87 1024.86 1025.01 1025.08 1025.08 1025.22
1018.39 1018.63 1018.89 1019.16 1019.41 1019.43 1019.56 1019.75 1020.05 1020.12 1020.39 1020.59 1020.81 1020.98 1021.06 1020.96 1020.89 1021.14 1021.33 1021.80 1022.16 1022.38 1022.60 1022.82 1022.94 1023.24 1023.56 1023.95 1024.19 1024.40 1024.78 1025.17 1025.66 1025.60 1025.33 1025.51 1025.37 1025.53 1025.58 1025.47 1025.32 1025.32 1025.42
1018.27 1018.48 1018.82 1019.24 1019.47 1019.64 1019.81 1019.82 1019.82 1020.06 1020.44 1020.66 1020.80 1020.90 1020.97 1021.03 1021.02 1021.11 1021.37 1021.79 1022.09 1022.28 1022.46 1022.68 1022.99 1023.32 1023.72 1023.99 1024.27 1024.48 1024.84 1025.41 1025.87 1025.98 1025.93 1026.12 1026.17 1026.27 1026.18 1025.79 1025.56 1025.53 1025.62
1018.39 1018.54 1018.73 1018.87 1019.16 1019.29 1019.60 1019.97 1019.89 1020.35 1020.57 1020.74 1020.83 1020.84 1020.98 1021.04 1021.12 1021.33 1021.81 1022.19 1022.43 1022.35 1022.24 1022.48 1023.05 1023.52 1023.90 1024.13 1024.40 1024.79 1025.16 1025.64 1026.27 1026.58 1026.50 1026.73 1026.89 1026.66 1026.58 1026.30 1025.78 1025.81 1025.97
1018.00 1018.27 1018.51 1018.84 1019.09 1019.50 1019.32 1019.81 1019.97 1020.45 1020.74 1020.81 1020.74 1020.74 1020.85 1020.96 1021.17 1021.52 1022.11 1022.59 1023.01 1023.08 1023.16 1022.96 1023.26 1023.78 1024.15 1024.49 1024.68 1024.89 1025.42 1026.21 1026.72 1026.89 1026.68 1027.08 1027.09 1027.08 1027.00 1026.78 1026.18 1026.12 1026.15
1017.79 1017.98 1018.26 1018.60 1018.74 1019.19 1019.31 1019.72 1019.91 1020.35 1020.71 1020.71 1020.69 1020.73 1020.78 1020.92 1021.19 1021.64 1022.12 1022.90 1023.41 1023.58 1023.41 1023.45 1023.61 1023.71 1023.96 1024.38 1024.80 1025.08 1025.77 1026.21 1026.78 1027.05 1027.09 1027.16 1027.45 1027.34 1027.21 1027.20 1027.06 1026.69 1026.49
1017.32 1017.50 1018.05 1018.40 1018.65 1018.93 1019.23 1019.65 1019.93 1020.39 1020.72 1020.77 1020.80 1020.81 1020.80 1020.88 1021.14 1021.63 1022.15 1022.87 1023.56 1024.10 1024.28 1024.53 1024.89 1025.02 1025.12 1025.11 1025.16 1025.39 1025.69 1026.22 1026.78 1027.26 1027.31 1027.42 1027.59 1027.67 1027.75 1027.47 1027.45 1027.39 1027.23
Wind_Speed
1 2 2 2 3 3 2 3 4 3 2 2 2 3 3 2 3 2 1 8 8 10 14 11 8 6 6 4 4 4 3 3 5 7 6 4 3 2 2 2 2 3 4
1 1 2 2 2 3 3 3 2 2 1 1 1 1 2 1 2 3 1 1 4 5 8 7 7 7 7 7 7 6 5 3 4 5 5 6 5 2 2 3 3 2 2
3 2 2 2 2 2 3 2 2 2 1 2 2 2 2 2 1 1 2 3 3 4 4 3 4 5 7 5 3 2 1 2 7 9 8 8 6 6 6 6 5 4 3
2 2 1 0 1 2 2 2 2 2 2 3 2 3 2 2 2 2 2 2 1 1 2 6 5 5 5 5 6 5 4 3 5 3 6 7 5 7 4 5 5 5 5
1 1 1 1 1 1 2 2 2 2 1 2 2 2 2 1 2 2 3 2 3 2 2 5 7 8 8 6 5 4 4 3 6 6 7 5 5 5 3 3 3 1 2
2 1 1 0 1 1 1 1 1 2 1 1 2 2 3 3 3 3 3 3 3 4 3 5 4 4 11 10 9 9 7 7 6 6 4 3 4 3 3 2 1 1 2
2 1 1 1 2 0 1 1 0 0 1 2 2 2 3 4 4 3 3 4 5 4 4 5 4 3 4 10 9 9 8 8 7 6 7 7 4 3 2 4 5 8 10
1 0 1 1 1 0 1 0 1 0 0 0 1 1 1 3 3 4 3 3 5 3 4 5 4 4 3 3 6 9 8 6 5 7 8 8 7 6 5 4 6 8 10
1 1 1 1 1 1 1 1 1 3 2 1 1 2 1 3 1 2 3 3 4 3 3 4 4 4 4 4 5 7 10 8 7 6 8 10 10 10 11 10 11 12 13
2 2 2 2 2 1 1 1 1 2 2 3 0 1 1 2 3 1 1 1 2 4 4 3 3 3 4 3 5 8 11 10 10 12 12 14 14 14 15 15 14 13 14
2 3 2 2 2 1 1 2 1 1 2 2 2 1 1 1 1 1 2 2 2 3 3 3 2 2 4 3 4 6 11 12 10 11 11 12 13 13 11 11 11 12 12
2 3 2 2 2 2 2 2 2 2 2 2 2 2 2 2 2 2 2 0 2 2 3 3 2 3 3 4 5 9 10 10 11 10 8 11 11 9 10 10 9 9 11
3 4 3 4 3 3 3 2 2 1 1 1 2 1 1 1 1 1 2 1 2 1 1 3 3 2 3 3 4 6 10 10 9 7 6 9 9 8 7 8 10 10 11
4 4 5 5 4 4 3 3 2 2 2 2 3 2 1 0 1 1 2 4 2 1 1 2 2 3 3 3 5 8 4 11 8 5 4 9 10 6 9 11 12 12 12
4 5 6 5 5 5 4 4 3 3 3 3 4 4 3 1 1 1 1 2 4 3 2 2 2 3 4 3 5 4 5 11 10 12 11 10 11 10 10 12 11 9 10
5 5 6 6 5 5 4 4 3 3 3 2 2 4 3 1 2 1 1 2 2 3 3 2 1 2 3 3 4 4 5 8 12 7 8 9 10 12 12 10 9 11 10
5 6 6 5 5 5 5 4 4 4 4 4 3 4 4 4 3 1 1 1 1 2 3 1 2 2 3 4 3 4 4 5 5 11 7 9 13 12 11 9 10 10 10
4 6 6 5 5 5 5 5 5 4 4 4 4 4 5 4 3 2 1 3 2 1 2 3 1 2 2 3 3 4 3 4 4 11 12 13 14 12 11 11 9 8 12
5 5 5 5 5 5 5 4 5 4 3 4 5 5 5 5 4 2 2 2 1 2 1 2 2 2 2 2 3 3 3 3 4 9 12 12 12 11 9 9 9 11 12
6 6 6 5 5 5 3 4 3 3 3 4 5 4 5 5 6 5 3 3 1 2 1 2 2 2 2 2 2 2 2 2 3 3 8 9 8 8 8 9 10 10 11
5 5 5 4 3 3 3 3 3 3 3 2 3 3 4 5 7 5 3 3 2 2 2 3 2 2 2 2 2 1 2 2 2 3 2 3 3 3 4 6 8 10 11
6 6 5 4 3 2 3 5 4 2 1 2 3 3 3 4 6 9 9 7 3 3 3 3 2 2 2 2 2 2 2 2 2 3 2 2 3 2 3 3 6 8 9
4 5 5 5 4 4 6 2 6 2 0 2 3 3 3 3 6 7 10 10 8 6 2 4 4 2 3 2 3 2 2 2 2 3 1 1 3 1 3 4 4 7 5
6 5 4 4 4 3 5 7 7 4 3 4 4 4 4 5 7 8 6 7 5 5 5 5 6 4 3 4 3 2 3 4 2 1 2 2 2 1 3 3 6 3 5
5 5 4 5 5 4 8 7 2 4 3 3 3 3 4 5 12 14 8 8 6 5 12 16 15 14 11 9 7 3 2 3 1 2 4 2 1 1 2 2 4 8 7
6 5 5 5 7 5 9 6 4 3 3 3 2 2 4 5 15 14 8 8 7 4 5 5 4 8 9 9 11 5 3 2 2 2 2 2 2 2 2 1 2 3 3
Wind_Direction
28 15 28 20 7 1 2 343 340 334 12 100 93 88 88 80 70 69 50 360 22 8 341 337 347 326 282 259 262 246 226 211 216 215 199 181 176 189 218 235 247 270 277
333 86 44 25 13 355 329 328 330 340 315 1 110 97 93 84 99 108 103 11 12 18 336 353 359 1 344 282 259 239 218 197 182 164 139 122 114 100 74 57 39 18 340
38 52 42 5 5 338 326 333 345 343 348 358 349 340 307 287 303 23 70 61 324 345 354 356 23 20 13 7 320 269 161 166 133 97 72 63 73 79 72 72 65 49 21
69 90 108 239 327 353 360 26 7 354 360 352 321 328 330 314 321 25 27 313 327 54 15 24 40 53 40 26 47 67 102 95 82 140 132 113 85 75 54 62 52 45 44
33 125 172 244 14 23 21 4 25 33 6 341 307 345 360 357 351 53 56 32 30 74 87 43 32 34 54 46 51 77 123 140 140 126 109 127 117 92 39 34 43 29 34
15 113 154 17 35 46 350 9 53 36 63 285 316 356 354 14 46 53 41 50 53 48 65 80 55 11 55 54 50 57 70 86 91 79 68 64 65 75 79 52 19 25 62
348 34 31 337 14 272 250 236 85 157 344 4 27 352 352 18 49 59 52 60 48 44 44 61 67 39 40 51 46 47 46 56 77 80 65 56 36 27 19 48 92 99 90
2 188 162 287 288 65 300 338 170 26 306 72 166 69 285 322 12 22 44 53 52 31 43 46 61 69 51 46 38 47 50 56 61 68 64 57 43 48 47 77 89 92 90
198 158 186 195 208 170 229 239 219 188 224 303 231 155 50 247 295 341 28 50 51 50 20 17 43 59 62 56 31 28 39 47 58 61 68 59 57 59 63 74 77 78 71
204 188 187 195 205 175 209 238 177 199 152 220 335 145 213 193 185 215 324 31 44 45 17 357 23 48 64 59 50 38 31 51 51 62 73 72 58 55 51 58 62 64 66
236 230 204 191 201 189 227 240 276 231 189 176 186 162 194 326 312 151 193 223 58 35 25 8 350 75 78 68 48 40 42 52 45 50 59 63 55 46 47 50 48 53 55
249 244 230 208 206 202 205 215 216 220 219 211 196 197 198 192 213 167 116 281 109 30 8 12 53 95 80 73 55 53 48 46 45 36 41 68 52 44 51 57 57 56 59
239 235 210 211 210 204 203 195 203 210 188 172 169 176 192 212 196 148 129 127 124 35 44 31 26 77 82 72 63 59 42 32 35 30 38 92 77 61 61 64 61 54 48
216 211 214 209 210 206 198 187 187 188 170 156 152 131 115 115 219 186 168 140 97 84 26 136 34 40 70 60 59 51 31 20 39 43 86 100 79 63 67 68 69 59 52
215 216 210 205 203 196 199 190 192 187 163 174 166 143 127 306 147 120 143 164 122 156 184 196 128 41 70 62 57 41 44 22 43 67 91 98 89 80 82 75 67 60 63
211 206 201 200 198 199 195 192 197 183 172 182 172 137 129 135 247 141 136 116 115 134 137 174 110 117 99 86 61 63 48 41 39 53 117 107 104 100 85 71 71 69 59
205 204 196 189 192 193 196 188 199 182 187 196 159 173 172 161 224 160 105 109 147 140 134 162 124 141 110 110 82 59 49 40 16 28 101 116 104 91 82 73 66 65 63
191 193 185 186 187 192 193 196 195 186 179 190 199 170 200 173 160 170 156 214 180 175 152 146 143 127 97 76 84 73 44 47 28 29 71 94 97 90 87 82 74 78 81
172 165 169 181 182 187 181 192 193 187 192 197 202 185 190 171 145 158 158 171 160 107 107 139 154 102 104 131 81 61 48 51 40 34 52 70 87 88 90 88 85 81 78
157 170 179 176 168 167 184 186 187 192 176 208 199 193 203 183 162 169 166 144 140 134 157 180 190 112 108 88 99 138 105 49 41 27 51 64 65 74 89 94 95 85 74
172 156 143 141 155 161 185 191 197 180 178 195 188 182 209 184 153 160 139 153 159 171 180 196 162 118 124 134 179 143 107 119 65 5 70 43 37 44 35 71 85 78 71
159 153 157 158 179 221 196 224 182 169 197 224 215 190 184 161 136 124 114 111 133 179 188 166 145 142 143 132 133 138 119 148 151 29 18 74 14 27 359 13 66 79 63
155 166 167 171 189 175 177 159 135 115 199 289 258 178 177 183 135 112 104 82 57 48 155 165 151 127 131 136 129 123 105 90 91 321 54 40 357 42 354 353 31 76 71
173 171 170 171 160 183 204 218 203 159 236 254 236 208 182 161 144 124 111 87 70 58 48 73 86 105 106 121 112 133 128 115 93 39 11 115 337 18 346 4 17 86 51
181 179 167 176 173 191 213 227 175 153 205 236 226 209 179 152 154 141 119 111 89 62 81 85 84 82 100 100 115 97 78 95 81 49 14 74 8 352 26 29 11 47 54
194 168 171 177 194 183 191 204 176 154 197 205 215 211 192 172 165 152 134 136 125 124 106 77 56 59 58 61 60 55 123 119 117 54 356 87 8 24 46 39 39 29 25